Home   Weather   Medina   Past weeks

Flag for Saudi Arabia Past Weather in Medina, Saudi Arabia — Yesterday and Last 2 Weeks

77 °F

Thunderstorms. Passing clouds.

Feels Like: 79 °F
Forecast: 67 / 94 °F
Wind: 24 mph from West

Location: Madinah

Current Time: Oct 27, 2016 at 2:11:42 AM

Latest Report: Oct 27, 2016 at 1:00 AM

Visibility: 2 mi

Pressure: 29.98 "Hg (27.97 "Hg at 606m altitude)

Humidity: 47%

Dew Point: 55 °F

Location of MedinaLocation

Past Weather in Medina — Graph


Medina Temperature Yesterday

Maximum temperature yesterday: 97 °F (at 2:00 PM)
Minimum temperature yesterday: 73 °F (at 5:00 AM)
Average temperature yesterday: 86 °F

High & Low Weather Summary for the Past Weeks

High100 °F (Oct 12, 2:00 PM)47% (Oct 27, 1:00 AM)30.07 "Hg (Oct 27, 1:00 AM)
Low70 °F (Oct 22, 6:00 AM)2% (Oct 12, 1:00 PM)29.83 "Hg (Oct 26, 3:00 PM)
Average87 °F12%29.98 "Hg
* Reported Oct 12 1:00 AM — Oct 27 1:00 AM, Medina, Weather by CustomWeather, © 2016

Note: Actual official high and low records may vary slightly from our data, if they occured in-between our weather recording intervals... More about our weather records


Medina Weather History for the Previous 24 Hours

Scroll right to see more
Time TempWeatherWind HumidityBarometerVisibility
1:00 AM
Thu, Oct 27
77 °FThunderstorms. Passing clouds.24 mph47%29.98 "Hg2 mi
12:00 AM86 °FThunderstorms. Passing clouds.9 mph24%29.98 "Hg4 mi
11:00 PM
Wed, Oct 26
88 °FClear.5 mph22%29.95 "Hg6 mi
10:00 PM90 °FClear.No wind20%29.95 "Hg6 mi
9:00 PM91 °FClear.5 mph20%29.92 "Hg6 mi
8:00 PM91 °FClear.5 mph17%29.89 "Hg10 mi
7:00 PM93 °FPassing clouds.5 mph15%29.86 "HgN/A
6:00 PM95 °FPassing clouds.6 mph11%29.86 "HgN/A
5:00 PM97 °FPartly sunny.12 mph9%29.83 "HgN/A
4:00 PM97 °FPartly sunny.12 mph7%29.83 "HgN/A
3:00 PM97 °FScattered clouds.8 mph7%29.83 "HgN/A
2:00 PM97 °FScattered clouds.13 mph6%29.86 "Hg6 mi
1:00 PM95 °FPassing clouds.6 mph9%29.89 "Hg5 mi
12:00 PM91 °FClear.6 mph15%29.92 "Hg6 mi
11:00 AM88 °FClear.9 mph16%29.95 "Hg6 mi
10:00 AM86 °FClear.9 mph14%29.95 "Hg6 mi
9:00 AM81 °FClear.5 mph14%29.95 "Hg6 mi
8:00 AM77 °FSunny.10 mph17%29.95 "Hg10 mi
7:00 AM73 °FSunny.3 mph23%29.92 "Hg10 mi
6:00 AM75 °FClear.5 mph21%29.92 "Hg10 mi
5:00 AM73 °FClear.5 mph23%29.89 "Hg10 mi
4:00 AM77 °FClear.No wind26%29.89 "Hg10 mi
3:00 AM77 °FClear.No wind24%29.92 "Hg10 mi
2:00 AM79 °FClear.5 mph23%29.92 "Hg10 mi
Weather by CustomWeather, © 2016

See weather overviewHow to use our weather pages